#timestamp,LO_Frequency,Hit,StdDev 
1587600015.3,286047000.0,N
1587600035.2,286047000.4,N
1587600055.0,286047001.8,N
1587600055.9,286047001.8,N
1587600075.8,286047004.4,N
1587600095.6,286047003.5,N
1587600115.4,286047001.9,N
1587600135.3,286047002.6,N
1587600155.1,286047004.1,N
1587600175.8,286047004.0,N
1587600195.7,286046999.8,N
1587600215.5,286047002.8,N
1587600235.4,286047001.7,N
1587600255.2,286047003.9,N
1587600275.0,286046998.6,N
1587600275.9,286046998.6,N
1587600295.8,286046999.6,N
1587600315.6,286047000.7,N
1587600335.5,286047000.9,N
1587600355.3,286047000.1,N
1587600375.1,286047001.5,N
1587600395.9,286047004.0,N
1587600415.7,286047005.5,Y
1587600435.6,286047003.1,P
1587600455.4,286047002.7,P
1587600475.2,286046998.1,N
1587600495.1,286046998.7,N
1587600496.0,286046998.7,N
1587600515.8,286047000.3,N
1587600535.6,286047000.4,N
1587600555.5,286047002.3,N
1587600575.3,286047002.1,N
1587600595.2,286047000.1,N
1587600615.9,286047000.9,N
1587600635.7,286047001.1,N
1587600655.6,286046996.6,N
1587600675.4,286046997.4,N
1587600695.2,286046998.4,N
1587600715.1,286047001.0,N
1587600716.0,286047001.0,N
1587600735.8,286046998.1,N
1587600755.7,286046996.7,N
1587600775.5,286046998.7,N
1587600795.3,286047000.1,N
1587600815.2,286047000.3,N
1587600835.0,286047001.6,N
1587600835.9,286047001.6,N
1587600855.8,286047001.9,N
1587600875.6,286047003.6,N
1587600895.4,286047003.4,N
1587600915.3,286047001.3,N
1587600935.1,286047000.2,N
1587600955.9,286047002.5,N
1587600975.7,286047001.0,N
1587600995.5,286047002.5,N
1587601015.4,286046998.2,N
1587601035.2,286046998.2,N
1587601055.0,286046996.9,N
1587601055.9,286046996.9,N
1587601075.8,286046998.8,N
1587601095.6,286046996.5,N
1587601115.5,286046999.0,N
1587601135.3,286046998.5,N
1587601155.1,286046999.5,N
1587601175.9,286046994.2,N
1587601195.7,286046993.5,N
1587601215.5,286046995.4,N
1587601235.4,286046998.9,N
1587601255.2,286046999.2,N
1587601275.1,286046999.6,N
1587601276.0,286046999.6,N
1587601295.8,286046997.4,N
1587601315.6,286046997.1,N
1587601335.5,286046997.4,N
1587601355.3,286046997.9,N
1587601375.2,286046997.5,N
1587601395.9,286046997.8,N
1587601415.7,286046996.8,N
1587601435.6,286046995.9,N
1587601455.4,286046995.4,N
1587601475.2,286046997.5,N
1587601495.1,286046995.6,N
1587601496.0,286046995.6,N
1587601515.8,286046993.8,Y
1587601535.7,286046997.3,P
1587601555.5,286046995.9,P
1587601575.3,286046992.3,P
1587601595.2,286046991.9,Y
1587601615.0,286046997.8,P
1587601615.9,286046997.8,N
1587601635.8,286046997.6,N
1587601655.6,286046997.6,N
1587601675.4,286046999.1,N
1587601695.3,286047000.0,N
1587601715.1,286046999.8,N
1587601735.9,286046998.9,N
1587601755.7,286046997.0,N
1587601775.5,286046999.6,N
1587601795.4,286046996.5,N
1587601815.2,286046998.9,N
1587601835.1,286047001.2,N
1587601836.0,286047001.2,N
1587601855.8,286046998.2,N
1587601875.6,286047000.4,N
1587601895.5,286047000.4,N
1587601915.3,286047001.8,N
1587601935.2,286047002.4,N
1587601955.9,286047000.5,N
1587601975.7,286046999.8,N
1587601995.6,286046998.5,N
1587602015.4,286046996.6,N
1587602035.2,286046996.8,N
1587602055.1,286047001.2,N
1587602056.0,286047001.2,N
1587602075.8,286046998.8,N
1587602095.7,286047000.6,N
1587602115.5,286046999.1,N
1587602135.3,286046998.3,N
1587602155.2,286047000.8,N
1587602175.0,286047001.1,N
1587602175.9,286047001.1,N
1587602195.8,286046998.7,N
1587602215.6,286046999.0,N
1587602235.4,286046996.6,N
1587602255.3,286046998.4,N
1587602275.1,286046998.1,N
1587602295.8,286047004.0,N
1587602315.7,286047003.7,N
1587602335.5,286047003.4,N
1587602355.4,286047006.0,Y
1587602375.2,286047002.0,P
1587602395.0,286047000.6,N
1587602395.9,286047000.6,N
1587602415.8,286047002.8,Y
1587602435.6,286047004.0,P
1587602455.5,286047002.6,N
1587602475.3,286047001.0,N
1587602495.1,286047001.1,N
1587602515.9,286047001.3,N
1587602535.7,286047002.5,N
1587602555.6,286047002.1,N
1587602575.4,286047001.5,N
1587602595.2,286047002.7,N
1587602645.1,286047004.8,E
1587602655.0,286047002.9,N
1587602655.9,286047002.9,P
1587602675.8,286047000.9,P
1587602695.6,286046998.7,N
1587602715.4,286046996.7,N
1587602735.3,286046998.6,N
1587602755.1,286047002.3,N
1587602775.9,286047004.3,N
1587602795.7,286047004.2,N
1587602815.5,286047000.5,N
1587602835.4,286046999.5,N
1587602855.2,286046996.7,N
1587602875.0,286046994.9,N
1587602875.9,286046994.9,N
1587602895.8,286046997.7,N
1587602915.6,286047001.2,N
1587602935.5,286047002.8,N
1587602955.3,286046998.1,N
1587602975.1,286047000.3,N
1587602995.9,286047000.1,N
1587603015.7,286047000.8,N
1587603035.6,286046999.7,N
1587603055.4,286047002.2,N
1587603075.2,286047000.1,N
1587603095.1,286047002.2,N
1587603096.0,286047002.2,N
1587603115.8,286047004.3,N
1587603135.7,286047001.3,N
1587603155.5,286046999.8,N
1587603175.3,286046998.7,N
1587603195.2,286046998.2,N
1587603215.0,286046998.5,N
1587603215.9,286046998.5,N
1587603235.7,286046998.7,N
1587603255.6,286046998.8,N
1587603275.4,286046999.1,N
1587603295.3,286046996.6,N
1587603315.1,286047000.7,N
1587603335.8,286046998.2,N
1587603355.7,286047002.4,N
1587603375.5,286047002.7,N
1587603395.4,286047002.3,N
1587603415.2,286047002.7,N
1587603435.0,286047000.1,N
1587603435.9,286047000.1,N
1587603455.8,286047000.3,N
1587603475.6,286046999.0,N
1587603495.5,286046997.7,N
1587603515.3,286046997.7,N
1587603535.1,286046999.5,N
1587603555.9,286047000.0,N
1587603575.7,286047000.1,N
1587603595.5,286047000.2,N
